Location: Newark
(13.8117°N, 3.6025°W)
Time: 09:26:09
(UTC+00:00)

Explorer 11/Cluster Stage 4 - Pass Details

Date: 25 August 2019
Orbit: 467 x 1259 km, 28.8° (Epoch: 21 October)

Event Time Altitude Azimuth Distance (km) Brightness Sun altitude
Rises 16:26:43 0° 293° (WNW) 4,019 11.3 29.0°
Reaches altitude 10° 16:29:47 10° 290° (WNW) 2,962 11.0 28.2°
Maximum altitude 16:36:57 63° 211° (SSW) 1,053 7.8 26.5°
Drops below altitude 10° 16:42:43 10° 130° (SE) 2,398 8.7 25.1°
Sets 16:45:00 0° 127° (SE) 3,209 9.2 24.5°
